Location: Cahas Mountain Overlook
(37.0833°N, 80.1000°W)
Time: 20:11:38
(UTC-04:00)

Explorer 7 - Pass Details

Date: 16 February 2026
Orbit: 430 x 541 km, 50.2° (Epoch: 13 March)

Event Time Altitude Azimuth Distance (km) Brightness Sun altitude
Rises 21:56:12 0° 309° (NW) 2,589 - -46.6°
Reaches altitude 10° 21:58:21 10° 310° (NW) 1,722 - -47.0°
Maximum altitude 22:02:17 81° 38° (NE) 530 - -47.7°
Drops below altitude 10° 22:06:20 10° 126° (SE) 1,773 - -48.5°
Sets 22:08:34 0° 127° (SE) 2,673 - -48.9°
